Location: UBC Liquid-Mirror Observatory
(49.2876°N, 122.5728°W)
Time: 12:20:42
(UTC-08:00)

Amateur Radio Satellites - All Passes

Search period start: 22 January 2017 11:50
Search period end: 23 January 2017 11:50
Location: UBC Liquid-Mirror Observatory, 49.2876°N, 122.5728°W

Satellite Date Start Highest point End Downlink Frequencies (MHz)
Time Altitude Azimuth
NANOSAT C BR1 22 Jan 11:56:59 12:00:25 24° 266° (W) 12:03:52 145.865
Oscar 19 22 Jan 11:59:29 12:04:23 44° 67° (ENE) 12:09:19 437.125/150
AO-7 22 Jan 12:00:26 12:05:36 18° 37° (NE) 12:10:46 29.400- 29.500
CUBEBUG 1 22 Jan 12:03:25 12:07:45 66° 103° (ESE) 12:12:01 437.445
BUGSAT 1 22 Jan 12:14:50 12:18:40 41° 261° (W) 12:22:31 437.445
Cosmos 2491 22 Jan 12:16:46 12:25:19 51° 71° (ENE) 12:33:50 435.465 / 435.565
AO-85 22 Jan 12:21:07 12:22:51 12° 110° (ESE) 12:24:33 145.980
AISAT 22 Jan 12:25:53 12:30:18 72° 104° (ESE) 12:34:39 437.250
50 SAT 22 Jan 12:26:35 12:30:06 56° 101° (E) 12:33:35 437.505
YUBILEINY 22 Jan 12:30:00 12:36:14 22° 75° (ENE) 12:42:28 435.215
Gurwin Techsat 1B 22 Jan 12:31:49 12:36:52 47° 67° (ENE) 12:41:58 435.225
DANDE 22 Jan 12:33:53 12:38:51 18° 53° (NE) 12:44:06 436.750
ITAMSAT 1 22 Jan 12:49:17 12:52:43 18° 55° (NE) 12:56:08 435.822/435.867
TISAT 1 22 Jan 12:55:18 12:58:12 18° 91° (E) 13:01:06 437.305
ESTCUBE 1 22 Jan 12:58:32 13:02:18 26° 297° (WNW) 13:06:03 437.505/2401.250
VELOX 1 22 Jan 12:59:13 13:03:34 57° 289° (WNW) 13:07:51 145.980
CUSAT 1 22 Jan 13:02:48 13:10:34 51° 69° (ENE) 13:17:51 437.405
SPROUT 22 Jan 13:10:33 13:14:43 54° 289° (WNW) 13:18:52 437.525
UKube-1 22 Jan 13:17:53 13:22:13 84° 101° (E) 13:26:32 .
SO-50 22 Jan 13:22:13 13:25:08 16° 20° (NNE) 13:28:00 436.795
DX 1 22 Jan 13:23:32 13:27:51 65° 288° (WNW) 13:32:08 434.975-435.025
AIST 1 22 Jan 13:35:52 13:40:08 56° 95° (E) 13:44:24
Oscar 19 22 Jan 13:39:19 13:43:52 30° 265° (W) 13:48:26 437.125/150
CUBEBUG 1 22 Jan 13:40:46 13:43:33 17° 301° (WNW) 13:46:19 437.445
AO-7 22 Jan 13:48:35 13:56:39 55° 60° (ENE) 14:04:46 29.400- 29.500
AO-85 22 Jan 13:58:03 14:02:40 79° 127° (SE) 14:06:58 145.980
50 SAT 22 Jan 14:01:00 14:02:53 14° 299° (WNW) 14:04:46 437.505
AISAT 22 Jan 14:03:32 14:06:14 16° 302° (WNW) 14:08:55 437.250
O/OREOS (USA 219) 22 Jan 14:07:08 14:10:35 21° 47° (NE) 14:14:01 437.305
Cosmos 2504 22 Jan 14:08:27 14:16:26 46° 88° (E) 14:23:56 435.465 / 435.565
ITUPSAT 1 22 Jan 14:09:28 14:13:18 23° 93° (E) 14:17:07 437.325
Gurwin Techsat 1B 22 Jan 14:12:27 14:17:02 29° 266° (W) 14:21:38 435.225
Cosmos 2491 22 Jan 14:13:57 14:22:03 44° 274° (W) 14:30:11 435.465 / 435.565
DANDE 22 Jan 14:15:22 14:23:02 62° 74° (ENE) 14:31:18 436.750
YUBILEINY 22 Jan 14:22:55 14:31:45 87° 98° (E) 14:40:40 435.215
ITAMSAT 1 22 Jan 14:26:22 14:31:32 84° 254° (WSW) 14:36:47 435.822/435.867
TISAT 1 22 Jan 14:30:05 14:34:09 51° 289° (WNW) 14:38:11 437.305
BEESAT 22 Jan 14:42:00 14:46:37 45° 99° (E) 14:51:12 436.000
SWISSCUBE 22 Jan 14:43:51 14:48:34 52° 100° (E) 14:53:14 437.505
CUSAT 1 22 Jan 14:44:59 14:52:28 45° 270° (W) 14:59:25 437.405
UKube-1 22 Jan 14:55:26 14:57:39 14° 303° (WNW) 14:59:51 .
GOMX 1 22 Jan 15:01:07 15:03:05 12° 54° (NE) 15:05:01 467.674
SO-50 22 Jan 15:02:13 15:06:39 49° 43° (NE) 15:11:00 436.795
BRITE-PL 22 Jan 15:06:16 15:11:04 29° 63° (ENE) 15:15:45 437.365/2234.400
AIST 1 22 Jan 15:15:08 15:18:06 18° 294° (WNW) 15:21:05
BEESAT 3 22 Jan 15:24:32 15:27:40 24° 116° (ESE) 15:30:51 437.485
AO-85 22 Jan 15:40:00 15:43:32 22° 327° (NNW) 15:46:52 145.980
AO-7 22 Jan 15:41:49 15:49:39 43° 261° (W) 15:57:34 29.400- 29.500
O/OREOS (USA 219) 22 Jan 15:45:57 15:50:25 64° 247° (WSW) 15:54:53 437.305
ITUPSAT 1 22 Jan 15:46:44 15:51:24 51° 291° (WNW) 15:56:04 437.325
MOZHAYETS 4 22 Jan 15:53:10 15:57:50 74° 102° (ESE) 16:02:29
CUTE-I 22 Jan 15:56:22 15:59:53 18° 55° (NE) 16:03:25 437.470
LilacSat-2 22 Jan 15:57:38 15:58:48 11° 58° (ENE) 15:59:58 437.200
DANDE 22 Jan 15:58:30 16:05:31 38° 272° (W) 16:12:59 436.750
Cosmos 2504 22 Jan 16:01:39 16:09:49 48° 289° (WNW) 16:17:30 435.465 / 435.565
M-CUBED/EXP-1 PRIME 22 Jan 16:07:10 16:09:54 23° 100° (E) 16:12:34 437.505
ITAMSAT 1 22 Jan 16:09:31 16:11:49 13° 274° (W) 16:14:09 435.822/435.867
BEESAT 2 22 Jan 16:14:13 16:17:46 33° 119° (ESE) 16:21:23 435.950
KKS-1 22 Jan 16:15:07 16:19:19 40° 98° (E) 16:23:29 437.445
BEESAT 22 Jan 16:20:11 16:24:12 27° 298° (WNW) 16:28:12 436.000
SWISSCUBE 22 Jan 16:22:13 16:26:03 24° 299° (WNW) 16:29:53 437.505
YUBILEINY 22 Jan 16:22:41 16:29:48 26° 302° (WNW) 16:37:00 435.215
HORYU 2 22 Jan 16:26:29 16:30:50 62° 71° (ENE) 16:35:12 437.375
GOMX 1 22 Jan 16:35:04 16:40:20 65° 72° (ENE) 16:45:19 467.674
NOAA 15 22 Jan 16:38:36 16:43:27 38° 64° (ENE) 16:48:21 137.62
Cubesat XI-IV 22 Jan 16:38:42 16:43:31 36° 64° (ENE) 16:48:20 437.490
HO-68 22 Jan 16:39:54 16:44:31 19° 45° (NE) 16:49:08 435.675
AUBIESAT-1 22 Jan 16:41:17 16:44:34 47° 106° (ESE) 16:47:45 437.475
SO-50 22 Jan 16:43:04 16:46:55 28° 243° (WSW) 16:50:43 436.795
BRITE-PL 22 Jan 16:43:42 16:49:16 54° 261° (W) 16:54:42 437.365/2234.400
CUBESAT XI-V 22 Jan 16:45:39 16:50:09 43° 98° (E) 16:54:35 437.345
STARS 22 Jan 17:01:15 17:05:33 55° 101° (E) 17:09:51 437.465
BEESAT 3 22 Jan 17:01:17 17:05:04 46° 316° (NW) 17:08:55 437.485
DOVE 4 22 Jan 17:01:55 17:06:36 49° 71° (ENE) 17:11:02 437.250
NOAA 18 22 Jan 17:03:17 17:08:14 36° 63° (ENE) 17:13:12 137.9125
CUTE 1.7 + AOD 2 22 Jan 17:15:43 17:16:50 11° 55° (NE) 17:17:57 437.475
LilacSat-2 22 Jan 17:28:42 17:32:28 85° 254° (WSW) 17:36:19 437.200
MOZHAYETS 4 22 Jan 17:31:28 17:34:28 17° 302° (WNW) 17:37:28
CUTE-I 22 Jan 17:33:58 17:39:17 85° 257° (WSW) 17:44:39 437.470
M-CUBED/EXP-1 PRIME 22 Jan 17:41:34 17:44:26 26° 300° (WNW) 17:47:13 437.505
CANX-2 22 Jan 17:42:59 17:46:14 21° 63° (ENE) 17:49:30 2200.000
SEEDS 22 Jan 17:49:28 17:52:01 16° 59° (ENE) 17:54:35 437.485
COMPASS 1 22 Jan 17:51:12 17:52:37 11° 56° (NE) 17:54:01 437.405
BEESAT 2 22 Jan 17:51:51 17:55:32 36° 319° (NW) 17:59:17 435.950
KKS-1 22 Jan 17:52:02 17:55:43 26° 297° (WNW) 17:59:24 437.445
AAUSAT CUBESAT 2 22 Jan 18:00:05 18:01:14 11° 56° (NE) 18:02:24 437.432
Cosmos 2504 22 Jan 18:02:36 18:05:32 12° 314° (NW) 18:08:25 435.465 / 435.565
HORYU 2 22 Jan 18:04:58 18:07:47 17° 270° (W) 18:10:38 437.375
CINEMA 3 22 Jan 18:12:18 18:16:33 57° 72° (ENE) 18:20:41 145.822/145.860
GOMX 1 22 Jan 18:14:54 18:18:47 20° 270° (W) 18:22:33 467.674
Cosmos 2499 22 Jan 18:15:43 18:22:18 28° 82° (E) 18:28:31 435.465 / 435.565
AUBIESAT-1 22 Jan 18:16:40 18:18:41 15° 305° (NW) 18:20:39 437.475
NOAA 15 22 Jan 18:18:22 18:23:14 37° 263° (W) 18:28:10 137.62
Cubesat XI-IV 22 Jan 18:18:37 18:23:34 39° 263° (W) 18:28:33 437.490
CUBESAT XI-V 22 Jan 18:23:24 18:27:20 27° 297° (WNW) 18:31:13 437.345
HO-68 22 Jan 18:23:55 18:31:02 67° 67° (ENE) 18:38:11 435.675
AIST 2 22 Jan 18:35:11 18:38:27 23° 115° (ESE) 18:41:46 435.215
STARS 22 Jan 18:38:22 18:41:33 20° 300° (WNW) 18:44:43 437.465
DOVE 4 22 Jan 18:40:38 18:44:30 23° 267° (W) 18:48:13 437.250
BEESAT 3 22 Jan 18:41:39 18:43:38 13° 338° (NNW) 18:45:37 437.485
NOAA 18 22 Jan 18:43:42 18:48:51 41° 262° (W) 18:54:02 137.9125
CUTE 1.7 + AOD 2 22 Jan 18:47:39 18:51:54 76° 75° (ENE) 18:56:12 437.475
CUBEBUG 2 22 Jan 18:49:55 18:53:41 35° 68° (ENE) 18:57:30 437.445
FUNcube-1 22 Jan 19:01:48 19:04:45 19° 62° (ENE) 19:07:45 145.935
AO-85 22 Jan 19:06:14 19:07:44 12° 16° (NNE) 19:09:13 145.980
GONETS M04 22 Jan 19:11:09 19:19:23 50° 88° (E) 19:27:42
UWE-3 22 Jan 19:12:39 19:16:30 39° 69° (ENE) 19:20:24 435.000/436.395/437.385
CUTE-I 22 Jan 19:17:33 19:20:08 14° 274° (W) 19:22:46 437.470
CANX-2 22 Jan 19:17:41 19:21:48 47° 261° (W) 19:25:59 2200.000
SEEDS 22 Jan 19:22:59 19:27:12 69° 258° (WSW) 19:31:28 437.485
COMPASS 1 22 Jan 19:23:14 19:27:27 82° 74° (ENE) 19:31:42 437.405
ZACube-1 22 Jan 19:25:31 19:29:14 33° 67° (ENE) 19:33:01 437.345
AAUSAT CUBESAT 2 22 Jan 19:31:48 19:35:58 79° 76° (ENE) 19:40:12 437.432
BEESAT 2 22 Jan 19:32:52 19:34:27 12° 341° (NNW) 19:36:03 435.950
STRAND 1 22 Jan 19:33:07 19:38:14 62° 102° (ESE) 19:43:19 437.568
CINEMA 3 22 Jan 19:51:18 19:54:04 16° 270° (W) 19:56:47 145.822/145.860
Oscar 11 22 Jan 19:56:19 20:00:33 59° 72° (ENE) 20:04:51 145.826/435.025
Cosmos 2499 22 Jan 20:06:34 20:14:50 72° 282° (WNW) 20:22:30 435.465 / 435.565
AIST 2 22 Jan 20:12:36 20:16:39 51° 315° (NW) 20:20:46 435.215
HO-68 22 Jan 20:13:11 20:19:17 29° 267° (W) 20:25:27 435.675
DELFI C3 22 Jan 20:25:34 20:29:21 41° 70° (ENE) 20:33:10 145.870
CUTE 1.7 + AOD 2 22 Jan 20:26:18 20:28:17 13° 273° (W) 20:30:16 437.475
CUBEBUG 2 22 Jan 20:27:00 20:30:26 25° 266° (W) 20:33:53 437.445
FUNcube-1 22 Jan 20:36:39 20:40:40 51° 260° (W) 20:44:46 145.935
AO-85 22 Jan 20:45:39 20:49:20 34° 40° (NE) 20:52:55 145.980
HUMSAT D 22 Jan 20:48:11 20:52:04 41° 69° (ENE) 20:56:02 437.325/437.525
PRISM 22 Jan 20:48:33 20:51:42 21° 93° (E) 20:54:49 437.425
UWE-3 22 Jan 20:49:51 20:53:08 23° 267° (W) 20:56:27 435.000/436.395/437.385
ESTCUBE 1 22 Jan 20:52:28 20:53:06 10° 53° (NE) 20:53:43 437.505/2401.250
ZACube-1 22 Jan 21:02:04 21:05:35 27° 266° (W) 21:09:10 437.345
COMPASS 1 22 Jan 21:02:05 21:03:35 12° 273° (W) 21:05:05 437.405
GONETS M04 22 Jan 21:08:04 21:16:20 46° 291° (WNW) 21:24:43
AAUSAT CUBESAT 2 22 Jan 21:10:20 21:12:00 12° 273° (W) 21:13:41 437.432
STRAND 1 22 Jan 21:13:02 21:17:01 23° 301° (WNW) 21:21:00 437.568
CUBEBUG 1 22 Jan 21:29:36 21:31:44 13° 57° (ENE) 21:33:51 437.445
Oscar 11 22 Jan 21:34:16 21:37:05 17° 270° (W) 21:39:56 145.826/435.025
ISS 22 Jan 21:42:23 21:45:14 28° 145° (SE) 21:48:05 145.825
AISAT 22 Jan 21:52:46 21:55:23 16° 58° (ENE) 21:58:00 437.250
AIST 2 22 Jan 21:53:36 21:56:05 15° 337° (NNW) 21:58:34 435.215
BY70-1 22 Jan 21:55:31 21:58:35 52° 72° (ENE) 22:01:51 436.1900
BEESAT 3 22 Jan 21:59:54 22:02:18 15° 26° (NNE) 22:04:43 437.485
UNISAT 6 22 Jan 22:01:15 22:05:28 41° 98° (E) 22:09:46 437.425
DELFI C3 22 Jan 22:01:17 22:04:21 21° 268° (W) 22:07:24 145.870
Cosmos 2499 22 Jan 22:04:13 22:09:25 18° 305° (NW) 22:14:24 435.465 / 435.565
JAS-2 22 Jan 22:06:07 22:12:12 28° 91° (E) 22:18:35 435.910
RS-15 22 Jan 22:11:41 22:21:46 34° 104° (ESE) 22:32:08 29.354- 29.394
TIGRISAT 22 Jan 22:13:39 22:17:59 51° 100° (E) 22:22:24 435.000
PRISM 22 Jan 22:23:16 22:27:11 42° 291° (WNW) 22:31:03 437.425
ESTCUBE 1 22 Jan 22:24:31 22:29:00 63° 72° (ENE) 22:33:31 437.505/2401.250
VELOX 1 22 Jan 22:24:36 22:28:20 27° 64° (ENE) 22:32:04 145.980
HUMSAT D 22 Jan 22:24:40 22:27:53 22° 268° (W) 22:31:08 437.325/437.525
AO-85 22 Jan 22:26:10 22:29:41 32° 241° (WSW) 22:33:11 145.980
ANTELSAT 22 Jan 22:29:34 22:34:01 76° 102° (ESE) 22:38:34 437.575/2403.000
YUBILEINY 22 Jan 22:32:38 22:37:24 15° 46° (NE) 22:42:09 435.215
SPROUT 22 Jan 22:32:47 22:36:10 23° 63° (ENE) 22:39:34 437.525
UKube-1 22 Jan 22:42:04 22:44:49 17° 59° (ENE) 22:47:35 .
DX 1 22 Jan 22:47:40 22:51:10 24° 62° (ENE) 22:54:41 434.975-435.025
BEESAT 2 22 Jan 22:50:34 22:53:26 18° 30° (NNE) 22:56:19 435.950
QB50P1 22 Jan 22:55:27 22:58:11 17° 90° (E) 23:00:55 145.935-145.965
POLYITAN 1 22 Jan 23:00:19 23:03:20 19° 91° (E) 23:06:21 437.675
QB50P2 22 Jan 23:01:33 23:04:45 20° 92° (E) 23:07:55 145.880/145.840
CUBEBUG 1 22 Jan 23:02:57 23:07:22 90° 253° (WSW) 23:11:47 437.445
50 SAT 22 Jan 23:04:52 23:08:16 43° 71° (ENE) 23:11:43 437.505
GONETS M04 22 Jan 23:12:51 23:16:07 12° 319° (NW) 23:19:24
ISS 22 Jan 23:18:15 23:21:30 78° 343° (NNW) 23:24:46 145.825
POPSAT HIP 1 22 Jan 23:21:58 23:25:41 29° 95° (E) 23:29:23 437.405
AISAT 22 Jan 23:26:51 23:31:18 77° 257° (WSW) 23:35:45 437.250
BY70-1 22 Jan 23:28:06 23:29:12 11° 271° (W) 23:30:20 436.1900
DUCHIFAT 1 22 Jan 23:29:10 23:32:53 30° 96° (E) 23:36:36 145.980
PCSat 22 Jan 23:30:09 23:34:26 24° 109° (ESE) 23:38:43 145.827
NANOSAT C BR1 22 Jan 23:36:05 23:40:02 38° 98° (E) 23:43:58 145.865
BEESAT 3 22 Jan 23:36:46 23:40:44 59° 48° (NE) 23:44:41 437.485
UNISAT 6 22 Jan 23:38:20 23:42:01 26° 296° (WNW) 23:45:45 437.425
AIST 1 22 Jan 23:38:53 23:42:16 22° 68° (ENE) 23:45:37
JAS-2 22 Jan 23:50:35 23:57:43 75° 289° (WNW) 00:05:27 435.910
TISAT 1 22 Jan 23:50:40 23:54:02 24° 63° (ENE) 23:57:23 437.305
TIGRISAT 22 Jan 23:51:00 23:54:24 22° 298° (WNW) 23:57:50 435.000
BUGSAT 1 22 Jan 23:52:36 23:55:36 20° 93° (E) 23:58:36 437.445
Cosmos 2504 22 Jan 23:56:29 00:01:44 20° 56° (NE) 00:06:49 435.465 / 435.565
VELOX 1 23 Jan 00:00:29 00:04:38 39° 262° (W) 00:08:50 145.980
ESTCUBE 1 23 Jan 00:03:16 00:06:15 17° 270° (W) 00:09:14 437.505/2401.250
ANTELSAT 23 Jan 00:07:34 00:10:14 16° 301° (WNW) 00:12:55 437.575/2403.000
SPROUT 23 Jan 00:07:51 00:11:53 42° 261° (W) 00:15:57 437.525
Oscar 19 23 Jan 00:09:37 00:10:30 10° 84° (E) 00:11:24 437.125/150
UKube-1 23 Jan 00:16:04 00:20:23 68° 257° (WSW) 00:24:42 .
BEESAT 23 Jan 00:17:33 00:19:57 14° 54° (NE) 00:22:22 436.000
SWISSCUBE 23 Jan 00:19:01 00:21:49 16° 56° (NE) 00:24:37 437.505
RS-15 23 Jan 00:20:56 00:32:59 86° 309° (NW) 00:45:29 29.354- 29.394
DX 1 23 Jan 00:22:57 00:27:08 44° 261° (W) 00:31:20 434.975-435.025
BEESAT 2 23 Jan 00:27:46 00:31:51 82° 51° (NE) 00:35:54 435.950
YUBILEINY 23 Jan 00:28:01 00:36:42 56° 73° (ENE) 00:45:16 435.215
QB50P1 23 Jan 00:30:11 00:34:19 57° 289° (WNW) 00:38:28 145.935-145.965
POLYITAN 1 23 Jan 00:35:18 00:39:25 51° 289° (WNW) 00:43:32 437.675
QB50P2 23 Jan 00:36:43 00:40:46 46° 290° (WNW) 00:44:50 145.880/145.840
50 SAT 23 Jan 00:39:25 00:41:43 16° 268° (W) 00:44:00 437.505
CUBEBUG 1 23 Jan 00:42:59 00:44:18 11° 274° (W) 00:45:36 437.445
Gurwin Techsat 1B 23 Jan 00:45:21 00:47:46 13° 86° (E) 00:50:09 435.225
ISS 23 Jan 00:54:59 00:58:12 54° 4° (N) 01:01:24 145.825
POPSAT HIP 1 23 Jan 00:57:42 01:01:27 32° 294° (WNW) 01:05:14 437.405
DUCHIFAT 1 23 Jan 01:04:50 01:08:33 31° 294° (WNW) 01:12:15 145.980
PCSat 23 Jan 01:12:00 01:17:23 66° 309° (NW) 01:22:49 145.827
NANOSAT C BR1 23 Jan 01:12:08 01:15:36 25° 296° (WNW) 01:19:04 145.865
AIST 2 23 Jan 01:13:49 01:16:33 16° 25° (NNE) 01:19:17 435.215
BEESAT 3 23 Jan 01:15:08 01:17:59 19° 246° (WSW) 01:20:49 437.485
AIST 1 23 Jan 01:16:02 01:20:03 41° 267° (W) 01:24:02
ITUPSAT 1 23 Jan 01:19:55 01:24:24 42° 67° (ENE) 01:28:54 437.325
Cosmos 2491 23 Jan 01:23:16 01:31:29 50° 88° (E) 01:39:46 435.465 / 435.565
MOZHAYETS 4 23 Jan 01:23:54 01:26:49 17° 58° (ENE) 01:29:46
M-CUBED/EXP-1 PRIME 23 Jan 01:25:03 01:26:14 11° 51° (NE) 01:27:23 437.505
TISAT 1 23 Jan 01:25:33 01:29:28 39° 262° (W) 01:33:25 437.305
BUGSAT 1 23 Jan 01:27:20 01:31:11 43° 290° (WNW) 01:35:02 437.445
JAS-2 23 Jan 01:36:53 01:41:48 21° 308° (NW) 01:47:01 435.910
Oscar 19 23 Jan 01:45:36 01:50:47 71° 103° (ESE) 01:55:55 437.125/150
Cosmos 2504 23 Jan 01:48:57 01:56:26 85° 79° (E) 02:03:36 435.465 / 435.565
AO-7 23 Jan 01:49:23 01:51:05 11° 80° (E) 01:52:47 29.400- 29.500
BEESAT 23 Jan 01:52:14 01:56:59 82° 73° (ENE) 02:01:48 436.000
SWISSCUBE 23 Jan 01:54:11 01:58:57 87° 251° (WSW) 02:03:46 437.505
AUBIESAT-1 23 Jan 01:57:27 02:00:07 17° 56° (ENE) 02:02:41 437.475
BEESAT 2 23 Jan 02:07:01 02:09:04 14° 249° (WSW) 02:11:06 435.950
CUSAT 1 23 Jan 02:08:43 02:13:48 33° 85° (E) 02:20:00 437.405
CUBESAT XI-V 23 Jan 02:19:16 02:20:45 11° 53° (NE) 02:22:12 437.345
Gurwin Techsat 1B 23 Jan 02:23:11 02:28:33 82° 105° (ESE) 02:33:53 435.225
YUBILEINY 23 Jan 02:25:16 02:33:15 40° 275° (W) 02:41:11 435.215
STARS 23 Jan 02:28:29 02:30:16 12° 55° (NE) 02:32:04 437.465
ISS 23 Jan 02:31:32 02:34:46 70° 204° (SSW) 02:38:01 145.825
ITAMSAT 1 23 Jan 02:35:22 02:39:38 25° 93° (E) 02:43:54 435.822/435.867
RS-15 23 Jan 02:35:48 02:47:21 45° 340° (NNW) 02:59:05 29.354- 29.394
AIST 2 23 Jan 02:51:39 02:55:52 60° 47° (NE) 03:00:04 435.215
M-CUBED/EXP-1 PRIME 23 Jan 02:55:55 03:00:09 75° 68° (ENE) 03:04:04 437.505
PCSat 23 Jan 02:57:53 03:01:50 20° 332° (NNW) 03:05:47 145.827
ITUPSAT 1 23 Jan 02:58:19 03:02:23 27° 266° (W) 03:06:28 437.325
MOZHAYETS 4 23 Jan 02:58:52 03:03:27 74° 257° (WSW) 03:08:05
KKS-1 23 Jan 03:16:50 03:21:14 62° 72° (ENE) 03:25:38 437.445
Cosmos 2491 23 Jan 03:20:13 03:28:28 45° 291° (WNW) 03:36:48 435.465 / 435.565
Oscar 19 23 Jan 03:25:50 03:29:36 21° 302° (WNW) 03:33:22 437.125/150
DANDE 23 Jan 03:29:04 03:33:11 39° 89° (E) 03:38:34 436.750
AUBIESAT-1 23 Jan 03:30:08 03:34:14 59° 252° (WSW) 03:38:04 437.475
BEESAT 23 Jan 03:32:55 03:35:24 14° 272° (W) 03:37:54 436.000
SWISSCUBE 23 Jan 03:35:37 03:37:29 12° 274° (W) 03:39:21 437.505
AO-7 23 Jan 03:37:44 03:45:55 53° 102° (ESE) 03:54:00 29.400- 29.500
Cosmos 2504 23 Jan 03:43:44 03:48:45 20° 283° (WNW) 03:53:40 435.465 / 435.565
CUSAT 1 23 Jan 03:49:41 03:55:21 53° 290° (WNW) 04:02:29 437.405
CUBESAT XI-V 23 Jan 03:52:34 03:57:14 67° 73° (ENE) 04:01:57 437.345
STARS 23 Jan 04:01:32 04:05:55 82° 74° (ENE) 04:10:19 437.465
Cosmos 2499 23 Jan 04:02:18 04:04:38 12° 47° (NE) 04:06:56 435.465 / 435.565
Gurwin Techsat 1B 23 Jan 04:04:14 04:07:54 19° 304° (NW) 04:11:32 435.225
ISS 23 Jan 04:08:47 04:10:49 16° 222° (SW) 04:12:50 145.825
ITAMSAT 1 23 Jan 04:14:20 04:19:25 53° 292° (WNW) 04:24:28 435.822/435.867
AIST 2 23 Jan 04:30:50 04:33:59 20° 246° (WSW) 04:37:07 435.215
M-CUBED/EXP-1 PRIME 23 Jan 04:33:01 04:34:58 13° 264° (W) 04:36:52 437.505
GOMX 1 23 Jan 04:35:03 04:36:41 12° 85° (E) 04:38:18 467.674
BRITE-PL 23 Jan 04:44:59 04:49:33 38° 95° (E) 04:53:45 437.365/2234.400
PCSat 23 Jan 04:45:30 04:47:27 12° 358° (N) 04:49:26 145.827
RS-15 23 Jan 04:52:05 05:03:36 41° 13° (NNE) 05:15:00 29.354- 29.394
KKS-1 23 Jan 04:55:21 04:58:13 17° 270° (W) 05:01:05 437.445
DANDE 23 Jan 05:11:58 05:16:05 31° 298° (WNW) 05:21:23 436.750
STRAND 1 23 Jan 05:15:40 05:19:34 23° 59° (ENE) 05:23:28 437.568
GONETS M04 23 Jan 05:15:43 05:23:27 32° 62° (ENE) 05:31:08
Cosmos 2491 23 Jan 05:25:05 05:28:15 12° 319° (NW) 05:31:25 435.465 / 435.565
AO-7 23 Jan 05:30:47 05:38:36 46° 303° (WNW) 05:46:23 29.400- 29.500
CUBESAT XI-V 23 Jan 05:32:02 05:35:06 17° 271° (W) 05:38:11 437.345
CUSAT 1 23 Jan 05:36:10 05:39:24 14° 316° (NW) 05:42:54 437.405
STARS 23 Jan 05:41:03 05:42:52 12° 272° (W) 05:44:40 437.465
CUTE-I 23 Jan 05:47:02 05:51:36 28° 94° (E) 05:56:08 437.470
HORYU 2 23 Jan 05:49:22 05:53:49 68° 102° (ESE) 05:58:16 437.375
Cosmos 2499 23 Jan 05:52:53 05:59:53 52° 73° (ENE) 06:06:44 435.465 / 435.565
ITAMSAT 1 23 Jan 05:56:48 05:57:46 10° 312° (NW) 05:58:44 435.822/435.867
O/OREOS (USA 219) 23 Jan 06:02:06 06:06:31 66° 113° (ESE) 06:10:58 437.305
GOMX 1 23 Jan 06:11:03 06:15:31 80° 286° (WNW) 06:19:43 467.674
BRITE-PL 23 Jan 06:23:40 06:27:55 30° 297° (WNW) 06:31:52 437.365/2234.400
NOAA 15 23 Jan 06:28:32 06:33:50 61° 102° (ESE) 06:39:04 137.62
PCSat 23 Jan 06:29:36 06:33:12 18° 24° (NNE) 06:36:48 145.827
Cubesat XI-IV 23 Jan 06:30:52 06:36:11 61° 102° (ESE) 06:41:29 437.490
CUTE 1.7 + AOD 2 23 Jan 06:31:21 06:31:46 10° 85° (E) 06:32:13 437.475
LilacSat-2 23 Jan 06:31:52 06:35:46 82° 103° (ESE) 06:39:39 437.200
DOVE 4 23 Jan 06:33:57 06:38:10 71° 103° (ESE) 06:42:17 437.250
STRAND 1 23 Jan 06:53:17 06:58:20 63° 258° (WSW) 07:03:25 437.568
CANX-2 23 Jan 06:58:45 07:02:11 23° 92° (E) 07:05:36 2200.000
SO-50 23 Jan 07:00:25 07:04:39 34° 119° (ESE) 07:08:50 436.795
NOAA 18 23 Jan 07:00:51 07:06:16 60° 102° (ESE) 07:11:40 137.9125
SEEDS 23 Jan 07:03:43 07:06:16 15° 89° (E) 07:08:48 437.485
COMPASS 1 23 Jan 07:04:50 07:05:12 10° 85° (E) 07:05:34 437.405
RS-15 23 Jan 07:06:07 07:18:35 72° 44° (NE) 07:30:38 29.354- 29.394
GONETS M04 23 Jan 07:12:18 07:21:07 72° 265° (W) 07:29:53
AO-7 23 Jan 07:24:57 07:29:21 16° 327° (NNW) 07:33:45 29.400- 29.500
CUTE-I 23 Jan 07:26:45 07:31:53 49° 293° (WNW) 07:37:01 437.470
HORYU 2 23 Jan 07:26:58 07:29:54 17° 301° (WNW) 07:32:49 437.375
HO-68 23 Jan 07:34:35 07:41:29 48° 99° (E) 07:48:21 435.675
CINEMA 3 23 Jan 07:39:10 07:43:24 82° 106° (ESE) 07:47:42 145.822/145.860
PRISM 23 Jan 07:41:31 07:45:04 27° 65° (ENE) 07:48:36 437.425
O/OREOS (USA 219) 23 Jan 07:43:02 07:46:23 20° 314° (NW) 07:49:45 437.305
TIGRISAT 23 Jan 07:44:01 07:44:36 10° 54° (NE) 07:45:12 435.000
Cosmos 2499 23 Jan 07:46:29 07:52:43 34° 275° (W) 07:58:52 435.465 / 435.565
GOMX 1 23 Jan 07:51:20 07:52:47 11° 306° (NW) 07:54:13 467.674
ANTELSAT 23 Jan 07:58:06 08:00:29 15° 58° (ENE) 08:02:52 437.575/2403.000
CUTE 1.7 + AOD 2 23 Jan 08:03:58 08:08:18 86° 99° (E) 08:12:36 437.475
LilacSat-2 23 Jan 08:08:01 08:09:28 12° 301° (WNW) 08:10:57 437.200
NOAA 15 23 Jan 08:09:00 08:13:13 24° 301° (WNW) 08:17:24 137.62
Cubesat XI-IV 23 Jan 08:11:39 08:15:52 24° 301° (WNW) 08:20:07 437.490
CUBEBUG 2 23 Jan 08:12:04 08:16:17 47° 99° (E) 08:20:36 437.445
PCSat 23 Jan 08:12:32 08:17:52 52° 48° (NE) 08:23:10 145.827
DOVE 4 23 Jan 08:13:03 08:15:20 14° 302° (WNW) 08:17:37 437.250
FUNcube-1 23 Jan 08:20:20 08:23:51 23° 93° (E) 08:27:23 145.935
JAS-2 23 Jan 08:25:30 08:29:05 17° 49° (NE) 08:32:55 435.910
UWE-3 23 Jan 08:33:33 08:37:50 50° 100° (E) 08:42:13 435.000/436.395/437.385
CANX-2 23 Jan 08:34:08 08:38:13 42° 291° (WNW) 08:42:17 2200.000
COMPASS 1 23 Jan 08:37:10 08:41:25 88° 104° (ESE) 08:45:37 437.405
SEEDS 23 Jan 08:38:09 08:42:23 63° 287° (WNW) 08:46:34 437.485
SO-50 23 Jan 08:40:33 08:45:03 44° 318° (NW) 08:49:30 436.795
NOAA 18 23 Jan 08:42:10 08:46:34 26° 302° (WNW) 08:50:58 137.9125
ZACube-1 23 Jan 08:44:56 08:49:07 41° 98° (E) 08:53:22 437.345
AAUSAT CUBESAT 2 23 Jan 08:45:04 08:49:18 83° 104° (ESE) 08:53:27 437.432
UNISAT 6 23 Jan 09:04:02 09:08:13 58° 71° (ENE) 09:12:26 437.425
CUTE-I 23 Jan 09:10:34 09:10:45 10° 313° (NW) 09:10:55 437.470
GONETS M04 23 Jan 09:11:08 09:16:18 17° 288° (WNW) 09:21:29
Oscar 11 23 Jan 09:15:09 09:19:32 69° 102° (ESE) 09:23:52 145.826/435.025
TIGRISAT 23 Jan 09:16:17 09:20:30 72° 74° (ENE) 09:24:47 435.000
PRISM 23 Jan 09:16:27 09:20:15 34° 263° (W) 09:24:05 437.425
CINEMA 3 23 Jan 09:17:58 09:20:00 13° 302° (WNW) 09:22:02 145.822/145.860
RS-15 23 Jan 09:19:14 09:30:31 45° 250° (WSW) 09:41:29 29.354- 29.394
HO-68 23 Jan 09:22:30 09:29:12 43° 299° (WNW) 09:35:50 435.675
ANTELSAT 23 Jan 09:32:24 09:36:39 75° 258° (WSW) 09:40:56 437.575/2403.000
DELFI C3 23 Jan 09:33:11 09:36:57 37° 97° (E) 09:40:39 145.870
CUTE 1.7 + AOD 2 23 Jan 09:41:25 09:43:31 13° 302° (WNW) 09:45:37 437.475
CUBEBUG 2 23 Jan 09:49:17 09:52:40 23° 297° (WNW) 09:56:06 437.445
QB50P1 23 Jan 09:51:42 09:54:56 22° 63° (ENE) 09:58:10 145.935-145.965
FUNcube-1 23 Jan 09:56:05 10:00:16 45° 290° (WNW) 10:04:32 145.935
PCSat 23 Jan 09:56:18 10:01:04 32° 248° (WSW) 10:05:48 145.827
POLYITAN 1 23 Jan 09:56:45 10:00:09 24° 64° (ENE) 10:03:33 437.675
QB50P2 23 Jan 09:57:58 10:01:30 26° 65° (ENE) 10:05:01 145.880/145.840
HUMSAT D 23 Jan 10:02:23 10:06:31 45° 98° (E) 10:10:39 437.325/437.525
JAS-2 23 Jan 10:07:35 10:13:05 80° 72° (ENE) 10:19:18 435.910
UWE-3 23 Jan 10:10:42 10:14:01 21° 297° (WNW) 10:17:23 435.000/436.395/437.385
COMPASS 1 23 Jan 10:14:28 10:16:19 13° 303° (WNW) 10:18:11 437.405
POPSAT HIP 1 23 Jan 10:18:12 10:22:03 37° 68° (ENE) 10:25:55 437.405
ZACube-1 23 Jan 10:21:37 10:25:13 25° 295° (WNW) 10:28:53 437.345
AAUSAT CUBESAT 2 23 Jan 10:22:09 10:24:09 13° 302° (WNW) 10:26:09 437.432
SO-50 23 Jan 10:23:47 10:26:38 16° 341° (NNW) 10:29:28 436.795
DUCHIFAT 1 23 Jan 10:24:43 10:28:34 37° 68° (ENE) 10:32:26 145.980
BY70-1 23 Jan 10:26:34 10:28:39 16° 91° (E) 10:30:39 436.1900
NANOSAT C BR1 23 Jan 10:31:53 10:35:54 48° 70° (ENE) 10:39:56 145.865
UNISAT 6 23 Jan 10:42:37 10:45:20 16° 270° (W) 10:48:04 437.425
BUGSAT 1 23 Jan 10:46:11 10:49:29 25° 65° (ENE) 10:52:46 437.445
CUBEBUG 1 23 Jan 10:49:05 10:50:56 12° 87° (E) 10:52:46 437.445
Oscar 11 23 Jan 10:52:25 10:55:10 17° 301° (WNW) 10:57:55 145.826/435.025
TIGRISAT 23 Jan 10:55:40 10:57:45 13° 272° (W) 10:59:49 435.000
CUSAT 1 23 Jan 10:56:23 10:59:09 12° 41° (NE) 11:01:53 437.405
AO-7 23 Jan 11:05:27 11:07:23 11° 23° (NNE) 11:09:19 29.400- 29.500
DELFI C3 23 Jan 11:08:23 11:11:34 23° 296° (WNW) 11:14:44 145.870
HO-68 23 Jan 11:12:28 11:15:08 12° 322° (NW) 11:17:48 435.675
AISAT 23 Jan 11:13:58 11:16:28 15° 89° (E) 11:18:58 437.250
QB50P1 23 Jan 11:26:26 11:30:27 44° 261° (W) 11:34:30 145.935-145.965
Cosmos 2491 23 Jan 11:27:56 11:35:36 32° 62° (ENE) 11:43:15 435.465 / 435.565
Oscar 19 23 Jan 11:28:36 11:32:50 26° 60° (ENE) 11:37:05 437.125/150
POLYITAN 1 23 Jan 11:31:50 11:35:45 39° 262° (W) 11:39:44 437.675
QB50P2 23 Jan 11:33:18 11:37:11 36° 263° (W) 11:41:04 145.880/145.840
HUMSAT D 23 Jan 11:38:31 11:41:53 23° 297° (WNW) 11:45:16 437.325/437.525
YUBILEINY 23 Jan 11:45:09 11:47:47 12° 67° (ENE) 11:50:25 435.215
